When you browse on this site, cookies collect data to enhance your experience and personalize the content and advertising you see.
Visit our Privacy Policy to learn more. By continuing to use the site, you agree to this use of cookies and data.
  • en Suisse
  • Liste des pays
  • À 7 jours
  • Température de l'eau
  • Carte météo
  • Widgets météo
  • user-avatar
    Se connecter

    Météo par heure à Porto-Novo

    Ce jour, 27 Février, Jeudi

    Heure Température Précipitation Vent Pression Humidité
    00:00 +29°C° 0 mm 3 m/s 756 mmHg 86%
    01:00 +29°C° 0 mm 3 m/s 756 mmHg 87%
    02:00 +29°C° 0 mm 3 m/s 755 mmHg 88%
    03:00 +29°C° 0 mm 3 m/s 754 mmHg 88%
    04:00 +28°C° 0.3 mm 2 m/s 755 mmHg 89%
    05:00 +28°C° 0.3 mm 2 m/s 755 mmHg 90%
    06:00 +28°C° 0.3 mm 2 m/s 755 mmHg 90%
    07:00 +30°C° 0.1 mm 2 m/s 756 mmHg 78%
    08:00 +32°C° 0.1 mm 2 m/s 757 mmHg 66%
    09:00 +36°C° 0.1 mm 2 m/s 757 mmHg 54%
    10:00 +37°C° 0 mm 3 m/s 757 mmHg 50%
    11:00 +38°C° 0 mm 3 m/s 756 mmHg 46%
    12:00 +40°C° 0 mm 4 m/s 756 mmHg 42%
    13:00 +38°C° 0 mm 4 m/s 755 mmHg 45%
    14:00 +37°C° 0 mm 5 m/s 755 mmHg 47%
    15:00 +37°C° 0 mm 5 m/s 754 mmHg 49%
    16:00 +35°C° 0 mm 5 m/s 754 mmHg 56%
    17:00 +34°C° 0 mm 4 m/s 755 mmHg 62%
    18:00 +32°C° 0 mm 4 m/s 755 mmHg 69%
    19:00 +32°C° 0 mm 4 m/s 755 mmHg 73%
    20:00 +32°C° 0 mm 4 m/s 756 mmHg 76%
    21:00 +30°C° 0 mm 3 m/s 757 mmHg 80%
    22:00 +30°C° 0 mm 3 m/s 757 mmHg 81%
    23:00 +30°C° 0 mm 3 m/s 756 mmHg 82%

    Demain, 28 Février, Vendredi

    Heure Température Précipitation Vent Pression Humidité
    00:00 +29°C° 0 mm 3 m/s 756 mmHg 83%
    01:00 +29°C° 0 mm 3 m/s 756 mmHg 85%
    02:00 +29°C° 0 mm 4 m/s 755 mmHg 86%
    03:00 +29°C° 0 mm 4 m/s 755 mmHg 87%
    04:00 +29°C° 0 mm 3 m/s 755 mmHg 89%
    05:00 +28°C° 0 mm 3 m/s 755 mmHg 90%
    06:00 +28°C° 0 mm 3 m/s 756 mmHg 91%
    07:00 +30°C° 0 mm 3 m/s 756 mmHg 82%
    08:00 +33°C° 0 mm 3 m/s 757 mmHg 72%
    09:00 +35°C° 0 mm 3 m/s 758 mmHg 63%
    10:00 +36°C° 0 mm 3 m/s 757 mmHg 59%
    11:00 +36°C° 0 mm 4 m/s 757 mmHg 56%
    12:00 +37°C° 0 mm 4 m/s 756 mmHg 52%
    13:00 +36°C° 0.2 mm 5 m/s 756 mmHg 56%
    14:00 +35°C° 0.2 mm 5 m/s 755 mmHg 59%
    15:00 +35°C° 0.2 mm 5 m/s 754 mmHg 63%
    16:00 +34°C° 0.2 mm 5 m/s 755 mmHg 66%
    17:00 +33°C° 0.2 mm 4 m/s 755 mmHg 69%
    18:00 +32°C° 0.2 mm 4 m/s 755 mmHg 72%
    19:00 +32°C° 0 mm 4 m/s 756 mmHg 75%
    20:00 +30°C° 0 mm 4 m/s 756 mmHg 78%
    21:00 +30°C° 0 mm 4 m/s 757 mmHg 81%
    22:00 +30°C° 0 mm 4 m/s 757 mmHg 82%
    23:00 +30°C° 0 mm 4 m/s 756 mmHg 83%

    Après-demain, 29 Février, Samedi

    Heure Température Précipitation Vent Pression Humidité
    00:00 +30°C° 0 mm 4 m/s 756 mmHg 84%
    01:00 +30°C° 0 mm 4 m/s 756 mmHg 83%
    02:00 +30°C° 0 mm 4 m/s 755 mmHg 83%
    03:00 +30°C° 0 mm 4 m/s 755 mmHg 83%
    04:00 +29°C° 0 mm 4 m/s 755 mmHg 84%
    05:00 +29°C° 0 mm 4 m/s 755 mmHg 85%
    06:00 +29°C° 0 mm 3 m/s 755 mmHg 86%
    07:00 +30°C° 0 mm 3 m/s 756 mmHg 78%
    08:00 +33°C° 0 mm 3 m/s 756 mmHg 70%
    09:00 +35°C° 0 mm 3 m/s 757 mmHg 63%
    10:00 +36°C° 0 mm 4 m/s 756 mmHg 59%
    11:00 +37°C° 0 mm 4 m/s 756 mmHg 56%
    12:00 +38°C° 0 mm 4 m/s 755 mmHg 53%
    13:00 +37°C° 0 mm 5 m/s 755 mmHg 55%
    14:00 +37°C° 0 mm 5 m/s 754 mmHg 57%
    15:00 +36°C° 0 mm 6 m/s 753 mmHg 59%
    16:00 +35°C° 0 mm 6 m/s 754 mmHg 65%
    17:00 +33°C° 0 mm 6 m/s 754 mmHg 71%
    18:00 +32°C° 0 mm 6 m/s 754 mmHg 77%
    19:00 +32°C° 0 mm 6 m/s 755 mmHg 78%
    20:00 +32°C° 0 mm 6 m/s 755 mmHg 80%
    21:00 +30°C° 0 mm 6 m/s 756 mmHg 81%
    22:00 +30°C° 0 mm 5 m/s 756 mmHg 81%
    23:00 +30°C° 0 mm 5 m/s 756 mmHg 82%

    1 Mars, Dimanche

    Heure Température Précipitation Vent Pression Humidité
    00:00 +30°C° 0 mm 5 m/s 756 mmHg 82%
    01:00 +30°C° 0.1 mm 5 m/s 756 mmHg 82%
    02:00 +30°C° 0.1 mm 5 m/s 755 mmHg 82%
    03:00 +30°C° 0.1 mm 5 m/s 755 mmHg 82%
    04:00 +30°C° 0 mm 4 m/s 755 mmHg 82%
    05:00 +30°C° 0 mm 4 m/s 755 mmHg 82%
    06:00 +30°C° 0 mm 4 m/s 755 mmHg 83%
    07:00 +32°C° 0 mm 4 m/s 756 mmHg 78%
    08:00 +33°C° 0 mm 4 m/s 757 mmHg 73%
    09:00 +33°C° 0 mm 4 m/s 757 mmHg 68%
    10:00 +34°C° 0.1 mm 4 m/s 757 mmHg 66%
    11:00 +34°C° 0.1 mm 4 m/s 756 mmHg 64%
    12:00 +34°C° 0.1 mm 4 m/s 756 mmHg 62%
    13:00 +35°C° 0.1 mm 5 m/s 755 mmHg 60%
    14:00 +36°C° 0.1 mm 5 m/s 755 mmHg 57%
    15:00 +36°C° 0.1 mm 5 m/s 754 mmHg 54%
    16:00 +35°C° 0.2 mm 5 m/s 755 mmHg 59%
    17:00 +34°C° 0.2 mm 5 m/s 755 mmHg 64%
    18:00 +32°C° 0.2 mm 5 m/s 755 mmHg 69%
    19:00 +32°C° 0 mm 5 m/s 756 mmHg 72%
    20:00 +32°C° 0 mm 5 m/s 757 mmHg 75%
    21:00 +30°C° 0 mm 5 m/s 757 mmHg 77%
    22:00 +30°C° 0 mm 5 m/s 757 mmHg 77%
    23:00 +30°C° 0 mm 5 m/s 757 mmHg 77%

    2 Mars, Lundi

    Heure Température Précipitation Vent Pression Humidité
    00:00 +30°C° 0 mm 5 m/s 757 mmHg 77%
    01:00 +30°C° 0 mm 4 m/s 756 mmHg 78%
    02:00 +29°C° 0 mm 4 m/s 756 mmHg 80%
    03:00 +29°C° 0 mm 3 m/s 755 mmHg 81%
    04:00 +29°C° 0.1 mm 3 m/s 756 mmHg 82%
    05:00 +29°C° 0.1 mm 3 m/s 756 mmHg 82%
    06:00 +29°C° 0.1 mm 3 m/s 756 mmHg 83%
    07:00 +30°C° 0.1 mm 4 m/s 757 mmHg 77%
    08:00 +32°C° 0.1 mm 4 m/s 758 mmHg 71%
    09:00 +34°C° 0.1 mm 4 m/s 758 mmHg 65%
    10:00 +34°C° 0.1 mm 4 m/s 758 mmHg 62%
    11:00 +35°C° 0.1 mm 4 m/s 757 mmHg 59%
    12:00 +35°C° 0.1 mm 4 m/s 757 mmHg 57%
    13:00 +35°C° 0.1 mm 4 m/s 756 mmHg 56%
    14:00 +35°C° 0.1 mm 5 m/s 756 mmHg 56%
    15:00 +36°C° 0.1 mm 5 m/s 755 mmHg 56%
    16:00 +34°C° 0.1 mm 5 m/s 755 mmHg 61%
    17:00 +33°C° 0.1 mm 5 m/s 755 mmHg 65%
    18:00 +32°C° 0.1 mm 4 m/s 756 mmHg 70%
    19:00 +32°C° 0.2 mm 4 m/s 756 mmHg 73%
    20:00 +30°C° 0.2 mm 4 m/s 757 mmHg 76%
    21:00 +30°C° 0.2 mm 4 m/s 757 mmHg 79%
    22:00 +30°C° 0 mm 4 m/s 757 mmHg 81%
    23:00 +29°C° 0 mm 3 m/s 757 mmHg 82%

    3 Mars, Mardi

    Heure Température Précipitation Vent Pression Humidité
    00:00 +29°C° 0 mm 2 m/s 757 mmHg 84%
    01:00 +29°C° 0 mm 3 m/s 757 mmHg 84%
    02:00 +29°C° 0 mm 3 m/s 756 mmHg 84%
    03:00 +29°C° 0 mm 3 m/s 756 mmHg 84%
    04:00 +29°C° 0 mm 3 m/s 756 mmHg 85%
    05:00 +29°C° 0 mm 3 m/s 756 mmHg 86%
    06:00 +29°C° 0 mm 3 m/s 756 mmHg 88%
    07:00 +30°C° 0.1 mm 3 m/s 757 mmHg 83%
    08:00 +30°C° 0.1 mm 4 m/s 757 mmHg 78%
    09:00 +32°C° 0.1 mm 4 m/s 758 mmHg 73%
    10:00 +33°C° 0.1 mm 4 m/s 758 mmHg 69%
    11:00 +34°C° 0.1 mm 4 m/s 757 mmHg 64%
    12:00 +35°C° 0.1 mm 4 m/s 757 mmHg 60%
    13:00 +35°C° 0 mm 4 m/s 756 mmHg 59%
    14:00 +35°C° 0 mm 4 m/s 755 mmHg 59%
    15:00 +35°C° 0 mm 4 m/s 755 mmHg 58%
    16:00 +34°C° 0 mm 5 m/s 755 mmHg 63%
    17:00 +33°C° 0 mm 5 m/s 755 mmHg 69%
    18:00 +32°C° 0 mm 5 m/s 755 mmHg 74%
    19:00 +32°C° 0 mm 4 m/s 756 mmHg 76%
    20:00 +30°C° 0 mm 4 m/s 757 mmHg 78%
    21:00 +30°C° 0 mm 3 m/s 757 mmHg 79%
    22:00 +30°C° 0 mm 3 m/s 757 mmHg 81%
    23:00 +29°C° 0 mm 3 m/s 757 mmHg 83%
    Voir plus